Location: Edinburgh
(55.9500°N, 3.1600°W)
Time: 09:35:35
(UTC+01:00)

Vanguard 3 - All Passes

Search period start: 16 August 2018 00:00
Search period end: 26 August 2018 00:00
Orbit: 507 x 3264 km, 33.4° (Epoch: 14 August)

Date Brightness Start Highest point End Pass type
(mag) Time Alt. Az. Time Alt. Az. Time Alt. Az.
16 Aug - 10:42:44 10° SSW 10:51:53 23° SSE 11:03:56 10° ESE daylight
16 Aug - 12:51:42 10° SW 13:03:52 32° S 13:19:28 10° ESE daylight
16 Aug - 15:03:38 10° WSW 15:16:50 28° SSW 15:31:44 10° SSE daylight
16 Aug - 17:20:06 10° WSW 17:29:05 15° SW 17:38:10 10° SSW daylight
17 Aug - 09:31:59 10° S 09:38:09 16° SE 09:45:45 10° ESE daylight
17 Aug - 11:38:40 10° SW 11:49:07 28° SSE 12:03:14 10° ESE daylight
17 Aug - 13:49:10 10° WSW 14:01:43 31° S 14:17:10 10° SE daylight
17 Aug - 16:02:49 10° WSW 16:14:27 21° SSW 16:27:00 10° S daylight
18 Aug - 10:26:29 10° SSW 10:34:54 23° SSE 10:46:17 10° ESE daylight
18 Aug - 12:35:29 10° SW 12:46:44 30° S 13:01:41 10° SE daylight
18 Aug - 14:47:23 10° WSW 14:59:32 26° SSW 15:13:46 10° SSE daylight
18 Aug - 17:04:44 10° WSW 17:11:41 13° SW 17:18:51 10° SSW daylight
19 Aug - 09:15:40 10° S 09:21:17 15° SE 09:28:18 10° ESE daylight
19 Aug - 11:22:32 10° SW 11:32:09 27° SSE 11:45:27 10° ESE daylight
19 Aug - 13:33:01 10° WSW 13:44:33 29° S 13:59:14 10° SE daylight
19 Aug - 15:46:50 10° WSW 15:57:07 19° SSW 16:08:31 10° S daylight
20 Aug - 10:10:24 10° SSW 10:18:04 22° SSE 10:28:35 10° ESE daylight
20 Aug - 12:19:27 10° SW 12:29:44 29° S 12:43:46 10° SE daylight
20 Aug - 14:31:22 10° WSW 14:42:19 23° SSW 14:55:31 10° SSE daylight
20 Aug - 16:51:06 10° SW 16:54:21 11° SW 16:57:41 10° SSW daylight
21 Aug - 08:59:33 10° S 09:04:33 15° SE 09:10:47 10° ESE daylight
21 Aug - 11:06:35 10° SW 11:15:18 26° SSE 11:27:35 10° ESE daylight
21 Aug - 13:17:04 10° WSW 13:27:29 26° SSW 13:41:06 10° SE daylight
21 Aug - 15:31:18 10° WSW 15:39:53 16° SSW 15:49:31 10° S daylight
22 Aug - 09:54:29 10° SSW 10:01:21 21° SSE 10:10:51 10° ESE daylight
22 Aug - 12:03:34 10° SW 12:12:51 26° S 12:25:43 10° SE daylight
22 Aug - 14:15:37 10° WSW 14:25:13 21° SSW 14:36:58 10° SSE daylight
23 Aug - 08:43:40 10° S 08:47:56 14° SSE 08:53:15 10° ESE daylight
23 Aug - 10:50:46 10° SW 10:58:35 24° S 11:09:39 10° SE daylight
23 Aug - 13:01:18 10° WSW 13:10:33 23° SSW 13:22:46 10° SSE daylight
23 Aug - 15:16:28 10° WSW 15:22:46 13° SW 15:29:45 10° SSW daylight
24 Aug - 09:38:43 10° SSW 09:44:47 19° SSE 09:53:06 10° ESE daylight
24 Aug - 11:47:52 10° SW 11:56:07 24° S 12:07:32 10° SE daylight
24 Aug - 14:00:13 10° WSW 14:08:14 17° SSW 14:18:01 10° S daylight
25 Aug - 08:27:58 10° S 08:31:28 13° SSE 08:35:41 10° SE daylight
25 Aug - 10:35:07 10° SW 10:42:00 22° S 10:51:41 10° SE daylight
25 Aug - 12:45:48 10° SW 12:53:46 20° SSW 13:04:12 10° SSE daylight
25 Aug - 15:04:24 10° SW 15:05:45 10° SW 15:07:09 10° SSW daylight
